AirNav   Everest Fuels
 
 462 users online  

2NY0 Catskill Valley Airpark
South Cairo, New York, USA

GOING TO SOUTH CAIRO?


FAA INFORMATION EFFECTIVE 16 JULY 2020

Location

FAA Identifier: 2NY0
Lat/Long: 42-16-50.3110N 073-57-10.4710W
42-16.838517N 073-57.174517W
42.2806419,-73.9529086
(estimated)
Elevation: 190 ft. / 58 m (estimated)
Variation: 14W (1985)
From city: 3 miles SE of SOUTH CAIRO, NY
Time zone: UTC -4 (UTC -5 during Standard Time)
Zip code: 12451

Airport Operations

Airport use: Private use. Permission required prior to landing
Activation date: 06/1962
Control tower: no
ARTCC: BOSTON CENTER
FSS: BURLINGTON FLIGHT SERVICE STATION
Attendance: UNATNDD
Wind indicator: no
Segmented circle: no

Airport Communications

WX AWOS-3 at 1B1 (11 nm E): 133.525 (518-828-2577)

Nearby radio navigation aids

VOR radial/distance  VOR name  Freq  Var
ALBr206/28.8ALBANY VORTAC115.3013W
PWLr345/34.4PAWLING VOR/DME114.3012W
IGNr003/37.4KINGSTON VOR/DME117.6012W

 
NDB name  Hdg/Dist  Freq  Var  ID
PHILMONT292/10.327213WPFH .--. ..-. ....
GREAT BARRINGTON298/25.139514WGBR --. -... .-.
HUNTER195/34.435614WHEU .... . ..-

Airport Services

Runway Information

Runway 2/20

Dimensions: 1475 x 50 ft. / 450 x 15 m
Surface: turf
RUNWAY 2  RUNWAY 20
Traffic pattern: leftleft

Airport Ownership and Management from official FAA records

Ownership: Privately-owned
Owner: CLEMENTS J HOOVLER JR
BOX 44
SOUTH CAIRO, NY 12482
Phone 518-622-3307
Manager: C J HOOVLER JR
BOX 44
SOUTH CAIRO, NY 12482
Phone 518-622-3307

Airport Operational Statistics

Aircraft based on the field: 2
Single engine airplanes: 2
    

Additional Remarks

FOR CD CTC ALBANY APCH AT 518-862-2299.

Instrument Procedures

There are no published instrument procedures at 2NY0.

Some nearby airports with instrument procedures:

1B1 - Columbia County Airport (11 nm E)
4B0 - South Albany Airport (18 nm N)
20N - Kingston-Ulster Airport (18 nm S)
KGBR - Walter J Koladza Airport (25 nm E)
KALB - Albany International Airport (29 nm N)
 
Loc | Ops | Rwys | IFR | FBO | Links
Com | Nav | Svcs | Stats | Notes
Area around 2NY0 (Catskill Valley Airpark)
 
Road maps at: MapQuest Bing Google
 
Aerial photo
No photo
 
Sectional chart

 
Airport distance calculator
Flying to Catskill Valley Airpark? Find the distance to fly.

From to 2NY0

Sunrise and sunset
Times for 05-Aug-2020
 Local
(UTC-4)
 Zulu
(UTC)
Morning civil twilight05:2309:23
Sunrise05:5509:55
Sunset20:0900:09
Evening civil twilight20:4000:40

Current date and time
Zulu (UTC)  05-Aug-2020 06:09:09
Local (UTC-4)  05-Aug-2020 02:09:09
 
METAR
KALB 
29nm N 
050551Z 16004KT 10SM FEW040 BKN070 18/18 A2989 RMK AO2 SLP122 T01830178 10194 20172 52013
KPSF 
31nm E 
050554Z AUTO 25005KT 10SM BKN055 19/17 A2992 RMK AO2 SLP107 T01940172 10206 20189 51010
KSCH 
34nm N 
050146Z 25005KT 15SM SCT039 OVC055 21/19 A2983 RMK LAST
TAF
KALB 
29nm N 
050525Z 0506/0606 17006KT P6SM SCT040 BKN060 FM051500 27010KT P6SM SCT050 FM060000 29003KT P6SM SKC
KPSF 
31nm E 
050525Z 0506/0606 24003KT P6SM OVC050 FM051500 26008KT P6SM SCT050 FM060100 28003KT P6SM SKC
NOTAMs
Click for the latest NOTAMs
NOTAMs are issued by the DoD/FAA and will open in a separate window not controlled by AirNav.

 

 
 

Would you like to see your business listed on this page?

 If your business provides an interesting product or service to pilots, flight crews, aircraft, or users of the Catskill Valley Airpark, you should consider listing it here.  To start the listing process, click on the button below
 
Add a business
 

Other Pages about Catskill Valley Airpark

Update a link
 
Copyright © AirNav, LLC. All rights reserved. Privacy Policy  Contact